Tracking 18823 objects as of 23-October-2017
HD Live streaming from Space Station
objects crossing your sky now

METEOSAT 3

Track METEOSAT 3 now!
METEOSAT 3 is classified as:


NORAD ID: 19215
Int'l Code: 1988-051A
Perigee: 36,718.5 km
Apogee: 36,786.2 km
Inclination: 16.1 °
Period: 1,485.3 minutes
Semi major axis: 43123 km
RCS: 4.1367 m2 (large)
Launch date: June 15, 1988
Source: European Space Agency (ESA)
Launch site: FRENCH GUIANA (FRGUI)
aabbcc
Your satellite tracking list
Your tracking list is empty





NASA's NSSDC Master Catalog

Two Line Element Set (TLE):
1 19215U 88051A   17295.47373851 -.00000089  00000-0  00000+0 0  9999
2 19215  16.0985   7.4932 0007846 273.3940 150.5022  0.96946860 92764
Source of the keplerian elements: AFSPC